METAR UND TAF INFORMATION
EDVK 160950Z 29011KT 9999 BKN024 16/11 Q1016

 FLUGHAFENKARTE

 RUNWAY INFORMATION
Runway 04 Runway length 4921 ft Runway width 98 ft
Runway elevation 898 ft Runway displaced threshold 0 ft Runway heading 41
Runway 22 Runway length 4921 ft Runway width 98 ft
Runway elevation 872 ft Runway displaced threshold 0 ft Runway heading 221
Runway 04L Runway length 2297 ft Runway width 98 ft
Runway elevation 0 ft Runway displaced threshold 0 ft Runway heading 41
Runway 22R Runway length 2297 ft Runway width 98 ft
Runway elevation 0 ft Runway displaced threshold 0 ft Runway heading 221

 AIRPORT FREQUENCIES
Type INFO Name BREMEN INF Frequency 119.825 MHZ
Type RDR Name BREMEN RAD Frequency 123.925 MHZ
Type TWR Name TWR Frequency 118.1 MHZ

 AIRPORT NEAR NAVIGATION AIDS
Type NDB Name Kassel Frequency 349 KHZ